星链-5283 (STARLINK-5283 )

导读

STARLINK-5283是美国SpaceX公司星链(Starlink)卫星互联网项目的卫星,于2023年1月31日发射入轨。它属于星链大规模低轨卫星星座的组成部分,运行在近地轨道,依托星链星座为全球偏远地区、特殊场景提供低延迟高速宽带互联网接入服务。 作为星链卫星迭代中的一员,它搭载成熟的通信技术,助力星链构建全球覆盖的卫星通信网络,但也和其他星链卫星一样,面临着太空轨道资源利用和天文观测影响等方面的争议。

基本信息
目录编号:
55396
目录名称:
STARLINK-5283
国际标识:
2023-014F
轨道中心:
EARTH
卫星名称:
星链-5283
卫星全名:
星链-5283 (STARLINK-5283 )
卫星状态:
在轨 (已飞行1320 天)
发射日期:
2023-01-31 UTC
国别 :
美国 (US)
星等 :
--
该卫星已列入 空间交会检测服务 Space Conjunction Data Service (SCDS) ,当前飞行风险评估等级: 无高风险
轨道信息
数据来源 国际轨道数据
星历时间: 2026-09-12T12:22:33+0800
12小时前
查看轨道信息
半长轴: 6950.182km
偏心率: 0.0003181
轨道倾角: 70.000°
近地点辐角 271.433°
升交点赤经 314.107°
平近点角 88.646°
近地点: 569.834km
远地点: 574.256km
周期: 96.107分钟
每日圈数: 14.983336
详细信息
固有亮度:
5
最大亮度:
2.5
卫星平台:
Starlink v1.5
覆盖范围:
全球
运营商:
太空探索技术公司
运营商所在国:
美国
制造商(研发单位):
太空探索技术公司
制造商所在国:
美国
使用方式:
暂无
卫星简介
星链(Starlink)计划是由太空探索技术公司(SpaceX)提出的一个巨型低轨卫星互联网星座项目,计划在2019年至2024年间在太空搭建由约1.2万颗卫星组成的“星链”网络,其中1584颗将部署在地球上空550千米处的近地轨道,并从2020年开始工作。该卫星仍在工作。
2D轨道图
3D轨道图
轨道高度分析图
轨道倾角分析图
轨道综合分析图
查看轨道综合分析图
交会数据列表
事件ID 空间交会对象 最接近时刻(TCA) 交会距离 交会风险概率(CRP) 交会风险指数(CRI) 操作
CDM_260914-080605-539606-174021
OBJECT F (61740)
2026-09-14T
08:06:18+0000
2.988 km
极远距离
1.316504E-6 低风险 0.37
CDM_260913-214005-539605-647221
2026-09-13T
21:40:59+0000
2.511 km
极远距离
1.135913E-6 低风险 0.36
CDM_260913-150404-488405-539621
OBJECT F (44884)
2026-09-13T
15:04:15+0000
2.426 km
极远距离
1.072997E-6 低风险 0.36
与全量物体交会距离演化趋势
与全量物体交会风险概率演化趋势